[[{"header":{"parameterUnit":"m.s-1","parameterCategory":1,"la1":30.2991,"la2":30.254,"lo1":-89.0895,"lo2":-89.0444,"dy":0.0017,"dx":0.0017,"nx":28,"ny":28,"refTime":"2024-08-10T15:00:00:Z","depth":0,"parameterNumber":2,"parameterNumberName":"U-component_of_WINDS"},"data":[0,0,0,0,0,0,0,0,0,0,0,0,0,0,0,0,0,0,0,0,0,0,0,0,0,0,0,0,0,0,0,0,0,0,0,0,0,0,0,0,0,0,0,0,0,0,0,0,0,0,0,0,0,0,0,0,0,0,0.7431,0.743,0,0.7356,0.7355,0.7354,0.72,0.7197,0.7194,0.7191,0.712,0.7121,0.7122,0,0,0,0,0,0,0,0,0,0,0,0,0,0.7447,0.7447,0.7431,0.743,0.7429,0.7356,0.7355,0.7354,0.7201,0.7197,0.7193,0.7189,0.712,0.7121,0.7122,0,0,0,0,0,0,0,0,0,0,0,0,0,0.7413,0.7447,0.7431,0.7343,0.7335,0.7356,0.7355,0.7354,0.7201,0.7197,0.7192,0.7188,0.7119,0.7121,0.7122,0.7225,0,0,0.7127,0.7128,0,0,0,0,0,0,0,0,0.7415,0.7413,0.7357,0.7349,0.734,0.7282,0.7335,0.7311,0.7203,0.7252,0.7191,0.7185,0.7178,0.7175,0.7171,0.7222,0.7219,0.7127,0.7128,0.7129,0.7129,0,0,0,0,0,0,0,0.7418,0.7415,0.7401,0.7357,0.7346,0.731,0.73,0.733,0.7243,0.7247,0.7236,0.7229,0.7173,0.717,0.7168,0.7218,0.7127,0.7128,0.7129,0.713,0.7353,0.7358,0,0,0,0,0,0,0.7432,0.7418,0.7404,0.7399,0.7366,0.7313,0.7302,0.7306,0.7242,0.7227,0.7233,0.7222,0.717,0.7167,0.7165,0.7285,0.7129,0.713,0.7131,0.7348,0.7354,0.736,0,0,0,0,0,0,0.7433,0.7432,0.7407,0.7405,0.7399,0.7318,0.7323,0.7307,0.7304,0.7231,0.7215,0.7246,0.7166,0.7163,0.7212,0.728,0.7131,0.7132,0.7342,0.735,0.7357,0.7523,0,0,0,0,0,0,0.7434,0.7433,0.747,0.7407,0.74,0.7453,0.7327,0.7309,0.7306,0.7291,0.7239,0.7226,0.7162,0.7211,0.7214,0.728,0.7133,0.7336,0.7346,0.7355,0.7512,0.7536,0.7556,0,0,0,0,0,0.7435,0.752,0.7473,0.7472,0.7444,0.7457,0.7453,0.7377,0.7312,0.735,0.7303,0.7227,0.7271,0.7217,0.7219,0.7287,0.7331,0.7343,0.7354,0.7501,0.7531,0.7556,0,0,0,0,0,0,0.7594,0.751,0.7457,0.7523,0.7499,0.7431,0.7476,0.741,0.7404,0.7391,0.7298,0.7287,0.735,0.7322,0.7263,0.7384,0.7289,0.7302,0.7401,0.7428,0.745,0.7458,0.7135,0,0,0,0,0,0.7637,0.7653,0.7579,0.7645,0.7635,0.7559,0.7562,0.7505,0.7476,0.7465,0.7422,0.7399,0.7408,0.7416,0.7419,0.7505,0.7494,0.7553,0.7575,0.7594,0.7607,0.7655,0.7682,0.7397,0.7397,0.7397,0,0,0.7726,0.7682,0.7698,0.7676,0.765,0.7672,0.7551,0.7578,0.7594,0.747,0.7514,0.7482,0.745,0.7519,0.7547,0.7498,0.7683,0.7609,0.7624,0.7627,0.767,0.7697,0.7721,0.7405,0.7403,0.7402,0,0,0.79,0.7866,0.792,0.7896,0.7858,0.7806,0.782,0.7762,0.7736,0.7778,0.7687,0.7705,0.7721,0.7703,0.7696,0.7866,0.7797,0.7869,0.7988,0.8036,0.8058,0.8078,0.8143,0.8167,0.7881,0.7882,0.7882,0,0.8016,0.8043,0.7956,0.799,0.7985,0.7871,0.7927,0.7909,0.7875,0.7876,0.782,0.784,0.781,0.7875,0.7917,0.7913,0.7929,0.7877,0.8061,0.808,0.8097,0.8158,0.8183,0.7891,0.789,0.7889,0.7888,0,0.819,0.8211,0.8258,0.8228,0.8228,0.8273,0.8195,0.8206,0.8149,0.8104,0.8151,0.8111,0.8107,0.8117,0.8062,0.8176,0.8147,0.8078,0.7981,0.8135,0.8192,0.8214,0.7905,0.7901,0.7898,0.7896,0,0,0.8465,0.8386,0.8405,0.8392,0.8342,0.8357,0.8397,0.8391,0.8405,0.8385,0.842,0.8436,0.8373,0.8365,0.8307,0.8348,0.8491,0.8274,0.8272,0.832,0.862,0.8676,0.8704,0.8443,0.8447,0.845,0.8624,0,0.8631,0.8695,0.8619,0.87,0.872,0.8613,0.8649,0.8624,0.8583,0.8596,0.8551,0.8567,0.8479,0.8474,0.851,0.8466,0.8551,0.8452,0.8479,0.8481,0.8495,0.8732,0.8791,0.8957,0.8645,0.8648,0.8651,0,0.8834,0.8824,0.8908,0.8855,0.8861,0.8894,0.8885,0.8897,0.8867,0.8835,0.8828,0.8757,0.8797,0.87,0.8755,0.869,0.8696,0.8676,0.8681,0.8684,0.8579,0.8747,0.9007,0.9035,0.8684,0.8681,0.8679,0,0.9033,0.9039,0.9091,0.9082,0.902,0.9048,0.9024,0.8989,0.8991,0.8983,0.8984,0.8981,0.8981,0.8981,0.8914,0.8848,0.898,0.8876,0.8958,0.896,0.8994,0.8994,0.9264,0.899,0.899,0.8989,0.8989,0,0.9229,0.9286,0.918,0.9213,0.9274,0.9186,0.925,0.9215,0.9185,0.9212,0.9117,0.9145,0.9051,0.9069,0.9016,0.9073,0.9072,0.905,0.9036,0.9061,0.9065,0.9068,0.9056,0.8996,0.8994,0.8993,0.8992,0,0.9463,0.9393,0.9444,0.9381,0.9367,0.9416,0.9363,0.9392,0.9345,0.938,0.9383,0.931,0.9326,0.9257,0.9262,0.9226,0.9313,0.9277,0.9323,0.9314,0.9402,0.9397,0.9688,0.9724,0.9423,0.9426,0.9428,0,0.9595,0.9636,0.9579,0.9589,0.9569,0.9586,0.9588,0.9504,0.951,0.9481,0.9515,0.9523,0.9526,0.9557,0.9507,0.9511,0.9478,0.9579,0.9478,0.9503,0.9486,0.9486,0.9492,0.9602,0.9606,0.9609,0.9611,0,0.984,0.9804,0.9809,0.9804,0.9809,0.9801,0.9786,0.9801,0.9709,0.9722,0.9737,0.9739,0.9744,0.9755,0.9749,0.9726,0.9657,0.9643,0.9663,0.9692,0.9719,0.9711,0.9386,0.9638,0.9635,0.9633,0.9632,0.9631,1.003,1.0063,1.0029,1.0039,1.0019,1.0008,1.0034,0.9989,1.0,0.9997,0.9946,0.9972,0.9944,0.9928,0.9913,0.9934,0.9887,0.9915,0.9923,0.9932,0.995,0.9711,0.9932,0.9931,0.993,0.9929,0.9929,0,1.0274,1.0246,1.0256,1.024,1.0249,1.0178,1.0159,1.0172,1.0196,1.0174,1.0179,1.0199,1.0209,1.0159,1.0164,1.0191,1.0159,1.0196,1.0196,1.0193,0.9989,0.9974,1.0222,1.0222,1.0221,1.0221,1.0221,1.0221,1.0403,1.0457,1.0417,1.0461,1.0432,1.0457,1.0453,1.0444,1.0426,1.0452,1.046,1.0426,1.0395,1.0396,1.0404,1.0389,1.0398,1.0447,1.0422,1.0234,1.0206,1.0179,1.0165,1.0448,1.0449,1.0624,1.0626,1.0627]},{"header":{"parameterUnit":"m.s-1","parameterCategory":1,"la1":30.2991,"la2":30.254,"lo1":-89.0895,"lo2":-89.0444,"dy":0.0017,"dx":0.0017,"nx":28,"ny":28,"refTime":"2024-08-10T15:00:00:Z","depth":0,"parameterNumber":3,"parameterNumberName":"V-component_of_WINDS"},"data":[0,0,0,0,0,0,0,0,0,0,0,0,0,0,0,0,0,0,0,0,0,0,0,0,0,0,0,0,0,0,0,0,0,0,0,0,0,0,0,0,0,0,0,0,0,0,0,0,0,0,0,0,0,0,0,0,0,0,-2.069,-2.069,0,-2.0659,-2.0659,-2.0658,-2.0644,-2.0644,-2.0644,-2.0644,-2.061,-2.0609,-2.0608,0,0,0,0,0,0,0,0,0,0,0,0,0,-2.0734,-2.0733,-2.069,-2.069,-2.0689,-2.0659,-2.0659,-2.0658,-2.0644,-2.0644,-2.0644,-2.0644,-2.061,-2.0609,-2.0608,0,0,0,0,0,0,0,0,0,0,0,0,0,-2.071,-2.0733,-2.069,-2.0679,-2.0677,-2.0659,-2.0659,-2.0658,-2.0644,-2.0644,-2.0644,-2.0644,-2.061,-2.0609,-2.0607,-2.0598,0,0,-2.0603,-2.0602,0,0,0,0,0,0,0,0,-2.0711,-2.0708,-2.0681,-2.0679,-2.0678,-2.0655,-2.0661,-2.0638,-2.0644,-2.0656,-2.0644,-2.0644,-2.0625,-2.0622,-2.0616,-2.0596,-2.0594,-2.0603,-2.0602,-2.0601,-2.0601,0,0,0,0,0,0,0,-2.0713,-2.071,-2.0678,-2.068,-2.0679,-2.0674,-2.0671,-2.0657,-2.064,-2.0655,-2.0654,-2.0651,-2.0624,-2.0617,-2.0615,-2.0594,-2.0603,-2.0602,-2.0601,-2.06,-2.0563,-2.0562,0,0,0,0,0,0,-2.0717,-2.0711,-2.0679,-2.0677,-2.0695,-2.0673,-2.0669,-2.0662,-2.0641,-2.0637,-2.0651,-2.065,-2.062,-2.0617,-2.0614,-2.06,-2.0601,-2.06,-2.0599,-2.0563,-2.0562,-2.0562,0,0,0,0,0,0,-2.0718,-2.0714,-2.068,-2.0694,-2.0689,-2.0672,-2.0665,-2.0662,-2.0655,-2.0637,-2.0634,-2.0648,-2.062,-2.0616,-2.0601,-2.0598,-2.0599,-2.0598,-2.0563,-2.0563,-2.0562,-2.0572,0,0,0,0,0,0,-2.0719,-2.0715,-2.0712,-2.0694,-2.0688,-2.0669,-2.0665,-2.0661,-2.0653,-2.0652,-2.0633,-2.063,-2.0619,-2.0604,-2.06,-2.0596,-2.0597,-2.0563,-2.0563,-2.0562,-2.0572,-2.0573,-2.0573,0,0,0,0,0,-2.0721,-2.0715,-2.0712,-2.0708,-2.0684,-2.0669,-2.0666,-2.0654,-2.0653,-2.0649,-2.0637,-2.0631,-2.0599,-2.0602,-2.0598,-2.0594,-2.0563,-2.0563,-2.0562,-2.0572,-2.0572,-2.0573,0,0,0,0,0,0,-2.0733,-2.0713,-2.0708,-2.0697,-2.0685,-2.0667,-2.0662,-2.0655,-2.0643,-2.0642,-2.0628,-2.0623,-2.061,-2.0601,-2.0604,-2.0582,-2.0581,-2.0579,-2.0589,-2.0589,-2.059,-2.0592,-2.0596,0,0,0,0,0,-2.0734,-2.0725,-2.0707,-2.0699,-2.0693,-2.0679,-2.0672,-2.0664,-2.065,-2.0645,-2.0632,-2.0618,-2.0605,-2.0597,-2.0584,-2.0571,-2.0566,-2.0566,-2.0566,-2.0566,-2.0565,-2.0556,-2.0556,-2.0561,-2.0561,-2.0561,0,0,-2.0737,-2.0725,-2.072,-2.0701,-2.0691,-2.068,-2.0674,-2.0664,-2.0655,-2.0643,-2.0629,-2.0619,-2.0602,-2.0588,-2.0581,-2.058,-2.0562,-2.0566,-2.0566,-2.0565,-2.0556,-2.0555,-2.0555,-2.0561,-2.0561,-2.0561,0,0,-2.0737,-2.0727,-2.0718,-2.0708,-2.0693,-2.0683,-2.0681,-2.0663,-2.0656,-2.0642,-2.0632,-2.0621,-2.0599,-2.0588,-2.0579,-2.0572,-2.0565,-2.0568,-2.057,-2.0561,-2.056,-2.056,-2.0557,-2.0556,-2.0568,-2.0568,-2.0568,0,-2.0742,-2.0726,-2.0715,-2.0704,-2.0696,-2.0685,-2.0675,-2.0665,-2.0646,-2.064,-2.0639,-2.061,-2.0598,-2.0581,-2.0579,-2.0573,-2.0569,-2.0571,-2.0562,-2.0561,-2.056,-2.0557,-2.0556,-2.0568,-2.0568,-2.0568,-2.0568,0,-2.0733,-2.0722,-2.0716,-2.0699,-2.069,-2.068,-2.0666,-2.0657,-2.065,-2.064,-2.0624,-2.061,-2.0593,-2.0588,-2.0581,-2.0569,-2.0568,-2.0565,-2.0562,-2.056,-2.0557,-2.0556,-2.0569,-2.0568,-2.0568,-2.0568,0,0,-2.0739,-2.0715,-2.0713,-2.0704,-2.0686,-2.0677,-2.0665,-2.065,-2.0642,-2.0629,-2.0618,-2.06,-2.0596,-2.0586,-2.0576,-2.0569,-2.0563,-2.0566,-2.0565,-2.0565,-2.0548,-2.055,-2.0549,-2.0558,-2.0558,-2.0558,-2.0549,0,-2.0735,-2.0716,-2.0705,-2.0689,-2.0678,-2.0667,-2.0657,-2.0644,-2.0634,-2.0622,-2.061,-2.0597,-2.0593,-2.0587,-2.0579,-2.0566,-2.0559,-2.0566,-2.0547,-2.0546,-2.0551,-2.0547,-2.055,-2.0543,-2.0547,-2.0547,-2.0547,0,-2.0729,-2.0716,-2.07,-2.0682,-2.0676,-2.0668,-2.0652,-2.0641,-2.0625,-2.0618,-2.0607,-2.0597,-2.0583,-2.0582,-2.0562,-2.0567,-2.0558,-2.055,-2.055,-2.0547,-2.0546,-2.0544,-2.054,-2.0538,-2.0545,-2.0545,-2.0545,0,-2.0734,-2.0713,-2.07,-2.0693,-2.0672,-2.0666,-2.0656,-2.0641,-2.0631,-2.0617,-2.061,-2.0594,-2.0585,-2.0572,-2.0558,-2.0559,-2.0539,-2.0537,-2.0532,-2.0532,-2.0528,-2.0528,-2.0522,-2.0523,-2.0523,-2.0523,-2.0523,0,-2.0731,-2.0721,-2.0702,-2.0694,-2.0682,-2.0669,-2.0657,-2.0647,-2.0632,-2.0621,-2.061,-2.06,-2.0582,-2.0569,-2.0558,-2.0542,-2.0538,-2.0531,-2.0528,-2.0532,-2.0532,-2.0525,-2.0525,-2.0523,-2.0523,-2.0523,-2.0523,0,-2.0735,-2.0722,-2.0707,-2.0688,-2.0683,-2.0675,-2.0658,-2.0649,-2.0638,-2.0623,-2.0619,-2.0601,-2.0585,-2.057,-2.0548,-2.0541,-2.0524,-2.0521,-2.053,-2.0528,-2.0523,-2.0523,-2.0511,-2.0508,-2.0513,-2.0513,-2.0513,0,-2.0734,-2.0726,-2.0706,-2.0698,-2.0689,-2.0676,-2.0667,-2.0652,-2.0643,-2.0623,-2.0616,-2.0599,-2.0585,-2.0559,-2.0544,-2.0526,-2.0522,-2.0519,-2.0519,-2.0523,-2.0521,-2.0521,-2.0519,-2.0519,-2.0519,-2.0519,-2.0519,0,-2.0732,-2.0726,-2.0713,-2.0698,-2.0687,-2.0674,-2.0661,-2.0654,-2.0637,-2.0627,-2.061,-2.0599,-2.0577,-2.0559,-2.054,-2.0529,-2.052,-2.0519,-2.0517,-2.052,-2.0525,-2.0521,-2.053,-2.0519,-2.0519,-2.0519,-2.0519,-2.0519,-2.0733,-2.0725,-2.0709,-2.0695,-2.0683,-2.0671,-2.0661,-2.0649,-2.0635,-2.0616,-2.0608,-2.0591,-2.0574,-2.0547,-2.0536,-2.0521,-2.052,-2.0517,-2.0516,-2.0515,-2.0515,-2.0528,-2.0518,-2.0518,-2.0518,-2.0518,-2.0518,0,-2.073,-2.0719,-2.0706,-2.0688,-2.0676,-2.067,-2.0655,-2.0645,-2.063,-2.0615,-2.0601,-2.0582,-2.0564,-2.0547,-2.0528,-2.052,-2.0515,-2.0515,-2.0516,-2.0513,-2.0518,-2.0522,-2.0519,-2.0519,-2.0519,-2.0519,-2.0519,-2.0519,-2.0727,-2.0713,-2.0705,-2.0684,-2.0673,-2.0657,-2.0648,-2.0636,-2.0624,-2.0602,-2.0588,-2.0577,-2.0561,-2.0541,-2.0524,-2.0519,-2.0512,-2.0513,-2.0507,-2.0513,-2.0513,-2.0513,-2.0516,-2.0512,-2.0512,-2.0503,-2.0503,-2.0503]}]]